{"data":{"norad_id":56308,"intl_designator":"2023-057A","name":"POEM-2","alt_names":[],"object_type":"PAYLOAD","status":"ACTIVE","operator":null,"country":"IND","launch_date":"2023-04-22","launch_site_code":"SRILR","launch_vehicle":null,"mission":null,"orbit_class":"UNKNOWN","rcs_meters":null,"size_class":null,"mass_kg":null,"dimensions":null,"purposes":[],"wikipedia_slug":null,"has_3d_model":false,"image_url":null,"decayed_at":null,"tle_current":{"epoch":"2026-09-21T12:38:51.141120Z","epoch_age_seconds":98973,"freshness":"FRESH","line1":"1 56308U 23057A   26264.52698080  .00001685  00000+0  86673-4 0  9990","line2":"2 56308   9.8888 281.6784 0020909 223.9702 135.8844 14.95203596186705","mean_motion":14.95203596,"eccentricity":0.0020909,"inclination_deg":9.8888,"raan_deg":281.6784,"arg_perigee_deg":223.9702,"mean_anomaly_deg":135.8844,"bstar":8.6673e-5,"rev_number":18670,"period_min":96.307954572362,"perigee_km":567.18847123187,"apogee_km":596.29328855,"semimajor_km":6959.8778798909,"source":"CELESTRAK","updated_at":"2026-09-22T09:00:25.743259Z"}}}